Regional Weather Roundup
Issued by NWS

Home | Current Version | Previous Version | Graphics & Text | Print | Product List | Glossary On
Versions: 1 2 3 4 5 6 7 8 9 10 11 12 13 14 15 16 17 18 19 20 21 22 23 24 25 26 27 28 29 30 31 32 33 34 35 36 37 38 39 40 41 42 43 44 45 46 47 48 49 50
989
ASUS44 KLIX 242301
RWRLA
LOUISIANA WEATHER ROUNDUP
NATIONAL WEATHER SERVICE NEW ORLEANS LA
600 PM CDT THU APR 24 2014

NOTE: "FAIR" INDICATES FEW OR NO CLOUDS BELOW 12,000 FEET WITH NO
      SIGNIFICANT WEATHER AND/OR OBSTRUCTIONS TO VISIBILITY.
      SKY/WX - SKY CONDITION AND SIGNIFICANT WEATHER.
      TMP - AIR TEMPERATURE.    DP   - DEWPOINT TEMPERATURE.
      RH  - RELATIVE HUMIDITY.  PRES - PRESSURE.
      HX  - HEAT INDEX.         WCI  - WIND CHILL INDEX.

*  THESE STATIONS ARE NOT NWS OR FAA STATIONS AND ARE NOT UNDER
   NWS QUALITY CONTROL.

LAZ040-048-061>063-065-066-069-250000-
SOUTHEAST LOUISIANA

CITY           SKY/WX    TMP DP  RH WIND       PRES   REMARKS
N.O. AUDUBON     N/A     78  65  64 MISG        N/A
N.O. INTL ARPT PTSUNNY   78  63  59 S15       29.87S
N.O. LAKEFRONT MOSUNNY   78  65  63 S18       29.87F
N.O. DOWNTOWN* MOCLDY    81  63  54 S14G20    29.87F
SLIDELL        MOSUNNY   78  66  66 SE14      29.85F
BATON ROUGE    CLOUDY    81  63  54 SW13      29.87R
BOOTHVILLE     MOSUNNY   74  66  76 S13       29.91F
BELLE CHASSE   PTSUNNY   77  64  64 S15       29.87F
BOGALUSA*        N/A     81  62  52 S13       29.87S
GALLIANO*      NOT AVBL
NEW ROADS*     NOT AVBL
GONZALES*      FAIR      79  65  62 S13       29.87R
HAMMOND*       NOT AVBL
HOUMA*         PTSUNNY   75  64  69 SE15      29.89S
PORT FOURCHON* MOCLDY    75  68  78 S12       29.90F

$$

LAZ041-044-053-054-250000-
SOUTHWEST LOUISIANA

CITY           SKY/WX    TMP DP  RH WIND       PRES   REMARKS
LAKE CHARLES   PTSUNNY   75  67  76 SW14G21   29.87F
LAFAYETTE      MOSUNNY   77  64  64 S12       29.88F
PATTERSON      PTSUNNY   77  66  69 S12G17    29.93S
SALT POINT       N/A     77  68  73 CALM      29.89S
NEW IBERIA     CLOUDY    77  65  66 S13       29.89F
CHENAULT AIRPK MOSUNNY   77  64  65 S16       29.87F

$$

LAZ027-028-250000-
CENTRAL LOUISIANA

CITY           SKY/WX    TMP DP  RH WIND       PRES   REMARKS
FORT POLK      CLOUDY    77  64  64 SW8G17    29.83F
ALEXANDRIA INT CLOUDY    80  64  58 SW12      29.81R
ALEXANDRIA     CLOUDY    80  62  54 SW8       29.82S

$$

LAZ001-002-250000-
NORTHWEST LOUISIANA

CITY           SKY/WX    TMP DP  RH WIND       PRES   REMARKS
SHREVEPORT     MOSUNNY   80  65  59 SW14G23   29.77F
BARKSDALE AFB  NOT AVBL
DTN SHREVEPORT SUNNY     78  65  63 SW14G23   29.77F

$$

LAZ014-016-250000-
NORTHEAST LOUISIANA

CITY           SKY/WX    TMP DP  RH WIND       PRES   REMARKS
MONROE         CLOUDY    78  66  66 SW13G21   29.78R
TALLULAH       MOSUNNY   81  64  56 S16G23    29.77F

$$




USA.gov is the U.S. government's official web portal to all federal, state and local government web resources and services.